GW7040 Weather Reports


time (UTC)temp
C
wind
direction
speed
KPH
gust
KPH
rain 1hr
cm
rain 24hr
cm
rain mn
cm
humidity
%
barometer
mb
20260906230025 37 87 4.8 4.8 0.00 0.00 0.00 34 1011.2
20260906225519 37 115 4.8 4.8 0.00 0.00 0.00 34 1011.2
20260906225015 37 118 3.2 3.2 0.00 0.00 0.00 35 1011.2
20260906224510 38 94 3.2 3.2 0.00 0.00 0.00 35 1011.2
20260906224007 37 105 1.6 1.6 0.00 0.00 0.00 34 1011.3
20260906223502 38 91 6.4 11.3 0.00 0.00 0.00 34 1011.2
20260906223000 38 112 1.6 3.2 0.00 0.00 0.00 34 1011.3
20260906222455 38 80 3.2 4.8 0.00 0.00 0.00 34 1011.3
20260906221953 38 112 3.2 3.2 0.00 0.00 0.00 33 1011.3
20260906221452 38 120 1.6 1.6 0.00 0.00 0.00 34 1011.3
20260906220948 38 110 3.2 3.2 0.00 0.00 0.00 33 1011.6
20260906220443 38 110 1.6 1.6 0.00 0.00 0.00 33 1011.4
20260906215942 39 155 1.6 1.6 0.00 0.00 0.00 34 1011.4
20260906215437 38 91 0.0 0.0 0.00 0.00 0.00 34 1011.2
20260906214935 39 94 3.2 3.2 0.00 0.00 0.00 33 1011.3
20260906214434 39 93 1.6 1.6 0.00 0.00 0.00 34 1011.3
20260906213933 39 116 1.6 3.2 0.00 0.00 0.00 34 1011.6
20260906213428 38 71 3.2 3.2 0.00 0.00 0.00 34 1011.6
20260906212926 39 89 4.8 4.8 0.00 0.00 0.00 34 1011.8
20260906212421 40 91 3.2 3.2 0.00 0.00 0.00 34 1011.7
20260906211922 40 96 1.6 1.6 0.00 0.00 0.00 34 1012.0
20260906211422 39 95 1.6 1.6 0.00 0.00 0.00 34 1012.0
20260906210916 39 112 1.6 3.2 0.00 0.00 0.00 35 1012.0
20260906210413 39 129 4.8 6.4 0.00 0.00 0.00 33 1012.0
20260906205907 39 141 3.2 3.2 0.00 0.00 0.00 36 1012.1
20260906205403 39 109 1.6 1.6 0.00 0.00 0.00 34 1012.1
20260906204858 39 116 3.2 4.8 0.00 0.00 0.00 33 1012.1
20260906204357 39 94 6.4 11.3 0.00 0.00 0.00 34 1012.4
20260906203857 39 117 6.4 11.3 0.00 0.00 0.00 34 1012.4
20260906203353 38 106 4.8 4.8 0.00 0.00 0.00 34 1012.3
20260906202850 39 124 4.8 9.7 0.00 0.00 0.00 34 1012.5
20260906202349 38 111 1.6 1.6 0.00 0.00 0.00 35 1012.5
20260906201849 38 79 1.6 3.2 0.00 0.00 0.00 35 1012.6
20260906201344 38 97 4.8 6.4 0.00 0.00 0.00 35 1012.6
20260906200840 38 108 1.6 1.6 0.00 0.00 0.00 36 1012.5
20260906200336 38 93 3.2 3.2 0.00 0.00 0.00 35 1012.9
20260906195836 39 98 3.2 3.2 0.00 0.00 0.00 34 1012.8
20260906195332 39 132 1.6 1.6 0.00 0.00 0.00 35 1012.9
20260906194828 38 103 6.4 9.7 0.00 0.00 0.00 35 1012.9
20260906194323 38 83 4.8 4.8 0.00 0.00 0.00 36 1012.9
20260906193818 38 98 3.2 3.2 0.00 0.00 0.00 36 1012.9
20260906193314 38 87 3.2 4.8 0.00 0.00 0.00 37 1013.1
20260906192809 38 110 3.2 3.2 0.00 0.00 0.00 37 1013.0
20260906192309 38 79 4.8 6.4 0.00 0.00 0.00 37 1013.1
20260906191808 38 93 0.0 0.0 0.00 0.00 0.00 38 1013.2
20260906191304 38 88 1.6 1.6 0.00 0.00 0.00 38 1013.3
20260906190804 38 86 1.6 1.6 0.00 0.00 0.00 37 1013.4
20260906190303 38 108 1.6 1.6 0.00 0.00 0.00 40 1013.7
20260906185802 38 81 3.2 3.2 0.00 0.00 0.00 39 1013.4
20260906185305 37 98 4.8 4.8 0.00 0.00 0.00 39 1013.6
20260906184756 37 103 3.2 3.2 0.00 0.00 0.00 39 1013.7
20260906184252 37 121 3.2 4.8 0.00 0.00 0.00 39 1013.7
20260906183747 37 107 3.2 3.2 0.00 0.00 0.00 39 1013.9
20260906183244 37 47 3.2 4.8 0.00 0.00 0.00 39 1013.6
20260906182743 37 102 1.6 3.2 0.00 0.00 0.00 38 1014.0
20260906182239 37 96 4.8 4.8 0.00 0.00 0.00 40 1013.8
20260906181734 37 66 4.8 6.4 0.00 0.00 0.00 40 1014.1
20260906181231 38 121 4.8 9.7 0.00 0.00 0.00 38 1014.1
20260906180731 38 88 4.8 9.7 0.00 0.00 0.00 37 1014.0
20260906180226 38 112 1.6 3.2 0.00 0.00 0.00 39 1014.3
20260906175724 38 93 1.6 1.6 0.00 0.00 0.00 38 1014.0
20260906175219 38 90 1.6 1.6 0.00 0.00 0.00 40 1014.3
20260906174718 38 98 0.0 1.6 0.00 0.00 0.00 40 1014.2
20260906174212 38 78 3.2 3.2 0.00 0.00 0.00 39 1014.3
20260906173708 37 99 0.0 1.6 0.00 0.00 0.00 41 1014.5
20260906173203 37 99 1.6 1.6 0.00 0.00 0.00 39 1014.5
20260906172702 37 102 3.2 4.8 0.00 0.00 0.00 42 1014.6
20260906172158 37 51 3.2 3.2 0.00 0.00 0.00 40 1014.7
20260906171658 37 107 1.6 3.2 0.00 0.00 0.00 41 1014.9
20260906171153 37 98 1.6 1.6 0.00 0.00 0.00 41 1014.6
20260906170649 36 80 3.2 4.8 0.00 0.00 0.00 41 1015.0
20260906170149 37 125 6.4 11.3 0.00 0.00 0.00 40 1014.9
20260906165645 37 95 1.6 1.6 0.00 0.00 0.00 42 1014.8
20260906165140 37 102 0.0 0.0 0.00 0.00 0.00 42 1014.9
20260906164639 37 94 1.6 1.6 0.00 0.00 0.00 43 1015.0
20260906164135 37 111 1.6 1.6 0.00 0.00 0.00 41 1015.0
20260906163631 37 97 1.6 1.6 0.00 0.00 0.00 42 1015.1
20260906163127 37 114 1.6 4.8 0.00 0.00 0.00 42 1014.8
20260906162624 37 86 3.2 3.2 0.00 0.00 0.00 42 1014.9
20260906162124 37 84 1.6 1.6 0.00 0.00 0.00 43 1014.7
20260906161623 36 95 3.2 3.2 0.00 0.00 0.00 43 1014.7
20260906161122 36 103 3.2 3.2 0.00 0.00 0.00 44 1014.7
20260906160621 36 93 4.8 6.4 0.00 0.00 0.00 44 1014.8
20260906160120 36 69 1.6 3.2 0.00 0.00 0.00 46 1015.0
20260906155618 36 107 1.6 3.2 0.00 0.00 0.00 44 1014.9
20260906155114 36 104 0.0 0.0 0.00 0.00 0.00 45 1014.9
20260906154609 36 105 0.0 0.0 0.00 0.00 0.00 49 1014.8
20260906154108 35 105 0.0 0.0 0.00 0.00 0.00 48 1014.8
20260906153608 35 101 1.6 3.2 0.00 0.00 0.00 46 1014.9
20260906153103 35 101 1.6 1.6 0.00 0.00 0.00 50 1014.8
20260906152603 36 86 3.2 3.2 0.00 0.00 0.00 51 1014.8
20260906152057 36 91 0.0 0.0 0.00 0.00 0.00 49 1014.6
20260906151552 35 92 1.6 3.2 0.00 0.00 0.00 50 1014.5
20260906151048 35 98 3.2 4.8 0.00 0.00 0.00 51 1014.6
20260906150543 36 95 0.0 0.0 0.00 0.00 0.00 50 1014.5
20260906150038 36 97 0.0 0.0 0.00 0.00 0.00 51 1014.6
20260906145536 35 83 0.0 0.0 0.00 0.00 0.00 50 1014.3
20260906145032 35 96 0.0 1.6 0.00 0.00 0.00 53 1014.7
20260906144526 34 90 0.0 0.0 0.00 0.00 0.00 55 1014.5
20260906144021 33 105 0.0 0.0 0.00 0.00 0.00 56 1014.7
20260906143516 33 99 0.0 0.0 0.00 0.00 0.00 59 1014.7
20260906143014 33 104 0.0 0.0 0.00 0.00 0.00 57 1014.7
20260906142513 33 103 0.0 0.0 0.00 0.00 0.00 57 1014.7
20260906142009 33 93 0.0 0.0 0.00 0.00 0.00 58 1014.7
20260906141508 32 92 0.0 0.0 0.00 0.00 0.00 60 1014.7
20260906141003 33 94 0.0 0.0 0.00 0.00 0.00 60 1014.7
20260906140503 32 94 0.0 0.0 0.00 0.00 0.00 61 1014.7
20260906140001 31 98 0.0 0.0 0.00 0.00 0.00 62 1014.7
20260906135459 31 97 1.6 1.6 0.00 0.00 0.00 62 1014.4
20260906134955 31 100 0.0 0.0 0.00 0.00 0.00 64 1014.5
20260906134451 32 99 0.0 0.0 0.00 0.00 0.00 63 1014.5
20260906133951 31 90 0.0 0.0 0.00 0.00 0.00 64 1014.4
20260906133446 31 101 0.0 0.0 0.00 0.00 0.00 66 1014.6
20260906132942 30 85 0.0 0.0 0.00 0.00 0.00 68 1014.6
20260906132437 30 96 1.6 1.6 0.00 0.00 0.00 71 1014.6
20260906131932 30 96 0.0 0.0 0.00 0.00 0.00 71 1014.7
20260906131428 29 96 0.0 0.0 0.00 0.00 0.00 71 1014.6
20260906130923 29 95 0.0 0.0 0.00 0.00 0.00 73 1014.8
20260906130422 28 96 0.0 0.0 0.00 0.00 0.00 74 1014.6
20260906125923 27 95 0.0 0.0 0.00 0.00 0.00 77 1014.4
20260906125420 27 96 0.0 0.0 0.00 0.00 0.00 80 1014.5
20260906124914 26 96 0.0 0.0 0.00 0.00 0.00 82 1014.3
20260906124410 25 96 0.0 0.0 0.00 0.00 0.00 85 1014.5
20260906123910 25 96 0.0 0.0 0.00 0.00 0.00 88 1014.4
20260906123410 25 96 0.0 0.0 0.00 0.00 0.00 89 1014.4
20260906122910 24 96 0.0 0.0 0.00 0.00 0.00 89 1014.1
20260906122404 24 96 0.0 0.0 0.00 0.00 0.00 90 1014.3
20260906121901 23 96 0.0 0.0 0.00 0.00 0.00 91 1014.3
20260906121357 23 96 0.0 0.0 0.00 0.00 0.00 89 1014.1
20260906120853 23 96 0.0 0.0 0.00 0.00 0.00 89 1014.1
20260906120349 24 96 0.0 0.0 0.00 0.00 0.00 88 1013.9
20260906115845 24 96 0.0 0.0 0.00 0.00 0.00 88 1014.0
20260906115340 24 96 0.0 0.0 0.00 0.00 0.00 87 1013.9
20260906114839 24 96 0.0 0.0 0.00 0.00 0.00 87 1013.9
20260906114334 25 96 0.0 0.0 0.00 0.00 0.00 86 1013.8
20260906113830 25 96 0.0 0.0 0.00 0.00 0.00 86 1013.7
20260906113329 25 96 0.0 0.0 0.00 0.00 0.00 87 1013.8
20260906112824 25 96 0.0 0.0 0.00 0.00 0.00 87 1013.7
20260906112320 25 96 0.0 0.0 0.00 0.00 0.00 86 1013.7
20260906111820 25 96 0.0 0.0 0.00 0.00 0.00 86 1013.7
20260906111320 25 96 0.0 0.0 0.00 0.00 0.00 86 1013.6
20260906110815 25 96 0.0 0.0 0.00 0.00 0.00 86 1013.7
20260906110311 25 96 0.0 0.0 0.00 0.00 0.00 86 1013.6
20260906105809 25 96 0.0 0.0 0.00 0.00 0.00 87 1013.6
20260906105306 25 96 0.0 0.0 0.00 0.00 0.00 88 1013.4
20260906104801 25 96 0.0 0.0 0.00 0.00 0.00 88 1013.4
20260906104259 25 96 0.0 0.0 0.00 0.00 0.00 88 1013.3
20260906103758 25 96 0.0 0.0 0.00 0.00 0.00 88 1013.4
20260906103257 24 96 0.0 0.0 0.00 0.00 0.00 88 1013.4
20260906102753 24 96 0.0 0.0 0.00 0.00 0.00 87 1013.2
20260906102252 25 96 0.0 0.0 0.00 0.00 0.00 86 1013.4
20260906101747 25 96 0.0 0.0 0.00 0.00 0.00 86 1013.2
20260906101242 25 96 0.0 0.0 0.00 0.00 0.00 85 1013.4
20260906100738 25 96 0.0 0.0 0.00 0.00 0.00 85 1013.2
20260906100237 25 96 0.0 0.0 0.00 0.00 0.00 85 1013.2
20260906095732 25 96 0.0 0.0 0.00 0.00 0.00 84 1013.2
20260906095228 25 96 0.0 0.0 0.00 0.00 0.00 84 1013.2
20260906094727 25 96 0.0 0.0 0.00 0.00 0.00 84 1013.4
20260906094222 25 96 0.0 0.0 0.00 0.00 0.00 83 1013.1
20260906093719 25 96 0.0 0.0 0.00 0.00 0.00 83 1013.0
20260906093214 25 96 0.0 0.0 0.00 0.00 0.00 82 1013.2
20260906092709 25 96 0.0 0.0 0.00 0.00 0.00 82 1012.8
20260906092208 25 96 0.0 0.0 0.00 0.00 0.00 82 1013.0
20260906091705 26 96 0.0 0.0 0.00 0.00 0.00 81 1013.0
20260906091201 26 96 0.0 0.0 0.00 0.00 0.00 80 1012.9
20260906090656 26 96 0.0 0.0 0.00 0.00 0.00 80 1013.0
20260906090156 26 96 0.0 0.0 0.00 0.00 0.00 80 1012.6
20260906085655 26 96 0.0 0.0 0.00 0.00 0.00 79 1012.7
20260906085154 26 96 0.0 0.0 0.00 0.00 0.00 79 1012.7
20260906084649 26 96 0.0 0.0 0.00 0.00 0.00 78 1012.8
20260906084148 26 97 0.0 0.0 0.00 0.00 0.00 78 1012.7
20260906083643 26 97 0.0 0.0 0.00 0.00 0.00 78 1012.6
20260906083139 26 97 0.0 0.0 0.00 0.00 0.00 77 1012.6
20260906082634 26 97 0.0 0.0 0.00 0.00 0.00 77 1012.8
20260906082130 26 85 1.6 1.6 0.00 0.00 0.00 77 1012.3
20260906081626 26 98 0.0 0.0 0.00 0.00 0.00 77 1012.5
20260906081120 26 99 0.0 0.0 0.00 0.00 0.00 76 1012.6
20260906080617 26 99 0.0 1.6 0.00 0.00 0.00 76 1012.6
20260906080113 26 96 0.0 0.0 0.00 0.00 0.00 76 1012.6
20260906075612 26 83 0.0 0.0 0.00 0.00 0.00 76 1012.6
20260906075107 26 90 0.0 0.0 0.00 0.00 0.00 76 1013.0
20260906074603 26 98 0.0 0.0 0.00 0.00 0.00 77 1012.7
20260906074101 26 98 0.0 0.0 0.00 0.00 0.00 76 1012.7
20260906073556 26 98 0.0 0.0 0.00 0.00 0.00 76 1012.8
20260906073053 26 88 0.0 0.0 0.00 0.00 0.00 74 1012.6
20260906072552 26 88 0.0 0.0 0.00 0.00 0.00 73 1012.9
20260906072049 27 88 0.0 0.0 0.00 0.00 0.00 73 1012.7
20260906071545 27 88 0.0 0.0 0.00 0.00 0.00 72 1012.9
20260906071039 27 88 0.0 0.0 0.00 0.00 0.00 73 1013.1
20260906070536 27 88 0.0 0.0 0.00 0.00 0.00 72 1013.3
20260906070031 27 89 0.0 0.0 0.00 0.00 0.00 70 1013.0
20260906065531 27 89 0.0 0.0 0.00 0.00 0.00 70 1013.0
20260906065027 27 91 1.6 1.6 0.00 0.00 0.00 69 1013.1
20260906064523 27 88 0.0 0.0 0.00 0.00 0.00 69 1013.0
20260906064023 27 92 1.6 1.6 0.00 0.00 0.00 69 1012.8
20260906063518 27 91 0.0 0.0 0.00 0.00 0.00 69 1013.1
20260906063014 27 90 0.0 0.0 0.00 0.00 0.00 68 1013.0
20260906062509 27 97 0.0 0.0 0.00 0.00 0.00 68 1013.0
20260906062003 27 92 0.0 0.0 0.00 0.00 0.00 68 1012.9
20260906061500 27 119 1.6 1.6 0.00 0.00 0.00 68 1012.8
20260906060959 28 95 0.0 0.0 0.00 0.00 0.00 68 1012.8
20260906060456 28 84 0.0 0.0 0.00 0.00 0.00 68 1013.0
20260906055952 28 98 0.0 1.6 0.00 0.00 0.00 67 1012.9
20260906055448 27 91 1.6 1.6 0.00 0.00 0.00 68 1012.9
20260906054944 27 96 0.0 0.0 0.00 0.00 0.00 68 1013.1
20260906054443 27 97 0.0 0.0 0.00 0.00 0.00 68 1013.1
20260906053939 28 88 0.0 0.0 0.00 0.00 0.00 68 1013.1
20260906053435 28 88 0.0 0.0 0.00 0.00 0.00 67 1013.1
20260906052931 28 88 0.0 0.0 0.00 0.00 0.00 67 1013.0
20260906052426 28 88 0.0 0.0 0.00 0.00 0.00 66 1012.9
20260906051923 28 88 0.0 0.0 0.00 0.00 0.00 66 1013.0
20260906051423 28 87 0.0 0.0 0.00 0.00 0.00 66 1012.9
20260906050919 28 86 0.0 0.0 0.00 0.00 0.00 66 1012.9
20260906050419 28 90 0.0 0.0 0.00 0.00 0.00 65 1013.1
20260906045918 28 94 0.0 0.0 0.00 0.00 0.00 65 1013.0
20260906045417 28 97 0.0 0.0 0.00 0.00 0.00 65 1013.1
20260906044914 28 100 0.0 0.0 0.00 0.00 0.00 65 1013.0
20260906044413 28 100 1.6 1.6 0.00 0.00 0.00 65 1013.2
20260906043909 29 89 0.0 0.0 0.00 0.00 0.00 65 1013.0
20260906043405 29 97 0.0 0.0 0.00 0.00 0.00 64 1013.0
20260906042900 29 96 0.0 0.0 0.00 0.00 0.00 64 1012.8
20260906042359 29 91 0.0 0.0 0.00 0.00 0.00 63 1013.0
20260906041855 29 101 0.0 0.0 0.00 0.00 0.00 63 1012.9
20260906041350 29 95 0.0 0.0 0.00 0.00 0.00 63 1013.1
20260906040845 29 99 0.0 0.0 0.00 0.00 0.00 63 1012.9
20260906040340 29 116 0.0 0.0 0.00 0.00 0.00 63 1013.0
20260906035835 30 112 0.0 0.0 0.00 0.00 0.00 63 1013.0
20260906035331 30 119 1.6 3.2 0.00 0.00 0.00 62 1013.1
20260906034826 30 90 1.6 1.6 0.00 0.00 0.00 62 1013.1
20260906034321 30 86 1.6 1.6 0.00 0.00 0.00 62 1013.0
20260906033817 30 94 0.0 1.6 0.00 0.00 0.00 62 1012.8
20260906033315 30 89 1.6 3.2 0.00 0.00 0.00 61 1013.0
20260906032812 30 63 1.6 1.6 0.00 0.00 0.00 61 1012.7
20260906032308 30 66 3.2 3.2 0.00 0.00 0.00 61 1013.0
20260906031803 30 104 0.0 0.0 0.00 0.00 0.00 61 1013.1
20260906031259 30 84 1.6 1.6 0.00 0.00 0.00 60 1013.0
20260906030758 30 116 3.2 3.2 0.00 0.00 0.00 60 1013.2
20260906030253 30 90 1.6 1.6 0.00 0.00 0.00 60 1013.1
20260906025753 30 105 0.0 0.0 0.00 0.00 0.00 60 1013.0
20260906025247 30 78 1.6 1.6 0.00 0.00 0.00 59 1013.0
20260906024746 30 85 0.0 0.0 0.00 0.00 0.00 59 1012.9
20260906024245 30 88 1.6 1.6 0.00 0.00 0.00 58 1012.9
20260906023741 30 97 1.6 1.6 0.00 0.00 0.00 58 1012.9
20260906023236 30 82 1.6 1.6 0.00 0.00 0.00 58 1012.8
20260906022732 30 97 1.6 3.2 0.00 0.00 0.00 57 1012.3
20260906022227 30 100 3.2 3.2 0.00 0.00 0.00 57 1012.5
20260906021723 31 96 0.0 0.0 0.00 0.00 0.00 56 1012.3
20260906021222 31 112 1.6 3.2 0.00 0.00 0.00 56 1012.4
20260906020717 31 91 1.6 1.6 0.00 0.00 0.00 55 1012.3
20260906020211 31 96 1.6 0.0 0.00 0.00 0.00 54 1012.3
20260906015706 31 85 1.6 1.6 0.00 0.00 0.00 54 1012.4
20260906015205 32 89 1.6 1.6 0.00 0.00 0.00 53 1012.3
20260906014704 32 87 1.6 3.2 0.00 0.00 0.00 52 1012.3
20260906014200 32 88 0.0 1.6 0.00 0.00 0.00 51 1012.1
20260906013656 32 114 1.6 1.6 0.00 0.00 0.00 51 1012.1
20260906013151 32 101 1.6 1.6 0.00 0.00 0.00 50 1012.0
20260906012652 33 111 3.2 3.2 0.00 0.00 0.00 49 1011.9
20260906012152 33 98 1.6 4.8 0.00 0.00 0.00 49 1011.7
20260906011648 33 99 4.8 4.8 0.00 0.00 0.00 48 1011.4
20260906011148 33 94 3.2 4.8 0.00 0.00 0.00 47 1011.4
20260906010643 33 41 1.6 3.2 0.00 0.00 0.00 44 1011.3
20260906010139 34 95 0.0 0.0 0.00 0.00 0.00 42 1011.3
20260906005639 34 110 1.6 3.2 0.00 0.00 0.00 42 1011.2
20260906005138 34 101 1.6 1.6 0.00 0.00 0.00 42 1011.2
20260906004637 34 99 1.6 1.6 0.00 0.00 0.00 42 1011.1
20260906004132 34 99 0.0 0.0 0.00 0.00 0.00 42 1011.2
20260906003627 35 98 3.2 4.8 0.00 0.00 0.00 41 1011.0
20260906003123 35 103 1.6 1.6 0.00 0.00 0.00 41 1011.2
20260906002618 35 100 3.2 4.8 0.00 0.00 0.00 40 1011.1
20260906002113 35 108 1.6 3.2 0.00 0.00 0.00 40 1011.3
20260906001609 35 90 1.6 1.6 0.00 0.00 0.00 40 1011.3
20260906001108 35 105 1.6 1.6 0.00 0.00 0.00 40 1011.2
20260906000605 35 84 0.0 1.6 0.00 0.00 0.00 39 1011.0
20260906000059 35 96 3.2 3.2 0.00 0.00 0.00 39 1010.8
20260905235558 35 88 1.6 3.2 0.00 0.00 0.00 38 1011.1
20260905235054 35 107 3.2 4.8 0.00 0.00 0.00 38 1011.0
20260905234549 36 102 1.6 1.6 0.00 0.00 0.00 38 1010.9
20260905234044 36 105 1.6 1.6 0.00 0.00 0.00 38 1010.8
20260905233544 36 98 0.0 0.0 0.00 0.00 0.00 38 1010.9
20260905233044 36 74 1.6 4.8 0.00 0.00 0.00 37 1010.9
20260905232539 36 98 1.6 3.2 0.00 0.00 0.00 37 1011.1
20260905232035 37 98 0.0 0.0 0.00 0.00 0.00 36 1010.9
20260905231530 37 104 0.0 0.0 0.00 0.00 0.00 36 1010.9
20260905231026 37 101 3.2 3.2 0.00 0.00 0.00 35 1010.9
20260905230525 37 124 1.6 1.6 0.00 0.00 0.00 35 1011.0